FREGAT DEB, 45999

Orbit data source: Space-Track

FREGAT DEB, 45999 is space debris originally from a launch on Mon, 18 Jul 2011 UTC launched from the Tyuratam Missile And Space Complex (TTMTR). Debris objects in space refer to the collection of defunct objects orbiting the Earth. Examples of debris include non-operational satellites, rocket bodies, and fragments generated from explosions, collisions, or faulty payload assembly.

Loading next visibility...
FREGAT DEB details
Identifier
45999, 2011-037HA
Orbit
Active
Last TLE update1 day ago
Origin
Flag of CISVVKO VKS (CIS)
ManufacturerLavochkin
MissionSpacecraft
Bus & MotorUnknown
MassUnknown
Launch date (UTC)
2011-07-18 (13 years ago)
Launch vehicleUnknown
Launch site
Tyuratam Missile And Space Complex (TTMTR)
Object type
Payload
Rocket body
Debris
Shape & HBRUnknown
Radar Cross SectionSmall (<0.1 m²)

Expand to show TLE details & history

TLE from 1 day ago
0 FREGAT DEB
1 45999U 11037HA  24348.07074852  .00001265  00000-0  33507-2 0  9996
2 45999  51.4702 351.5966 2141943 331.2197  18.5195 10.05914218160683
Epoch: 2024-12-13T01:41Z
Definitive object data (Epoch: 2024-12-13T01:41:52.672Z)
Latitude0.00004°
Longitude-116.11483°
Altitude905.437 km
Speed8.094 km/s
True Right ascension23h 26m 23s
True Declination0° 00' 00"
Sunlit
Object was in daylight at TLE epoch
Visualization TLE readout
Latitude6.99595°
Longitude56.01461°
Altitude4,482.126 km
Speed5.427 km/s
Apparent Right ascension12h 18m 18s
Apparent Declination-11° 51' 07"
Sunlit
Object is in daylight
Visualization observer readout
Local Sidereal Time03:44:31
Azimuth73.098° E
Elevation-36.761°
Doppler factor1
Orbital elements
Apogee altitude4,628.893 km
Perigee altitude745.424 km
Semi-major axis9,065.296 km
Eccentricity0.2141943
Inclination51.4702°
RAAN351.5966°
Arg. of periapsis331.2197°
True anomaly28.86167°
Mean anomaly18.5195°
Eccentric anomaly23.39187°
Mean motion2.51461 °/min
BSTAR0.0033507
Orbital period143.16 mins
Loading maneuver chart data...
Loading historical data...
Loading historical data...
Loading historical data...
Loading historical data...
Loading historical data...
Loading historical data...
Loading historical data...

FREGAT DEB Visibility forecast

Observer location: undefined°, undefined

Span
Click to sort rows by Start time (UTC) header in descending order
Start Az.
Max El. time (UTC)
Max El. Az.
Max El.
End time (UTC)
End Az.
38 mins2024-12-14 06:37:31.265Z289.241° WNW2024-12-14 06:50:31.265Z5.162° NNE40.224°2024-12-14 07:15:31.265Z84.484° E
47 mins2024-12-14 09:09:31.265Z304.821° NW2024-12-14 09:28:31.265Z46.934° ENE44.759°2024-12-14 09:56:31.265Z126.108° SE
45 mins2024-12-14 11:42:31.265Z302.411° NW2024-12-14 12:02:31.265Z240.536° WSW37.797°2024-12-14 12:27:31.265Z172.404° S
13 mins2024-12-14 14:26:31.265Z272.281° WNW2024-12-14 14:32:31.265Z259.077° W11.82°2024-12-14 14:39:31.265Z243.781° WSW
16 mins2024-12-15 01:31:31.265Z170.842° S2024-12-15 01:36:31.265Z116.889° SE30.456°2024-12-15 01:47:31.265Z58.912° ENE
26 mins2024-12-15 03:58:31.265Z250.86° W2024-12-15 04:06:31.265Z342.185° N43.537°2024-12-15 04:24:31.265Z57.697° ENE
|